Showing default

TOMORROW-S7, 63631

Orbit data source: Space-Track

TOMORROW-S7, 63631 is a payload satellite owned by Tomorrow.io (US) in LEO that was launched on Tue, 22 Apr 2025 UTC via an FALCON 9 launch vehicle from the Air Force Eastern Test Range (AFETR). Payload-class satellites include a variety of spacecraft equipped with specific instruments for various scientific and technological missions. These include communications satellites like Starlink; space stations such as the ISS; scientific satellites like the Hubble; Earth observation satellites from companies like Planet Labs, Umbra, and HawkEye 360; GPS; miniature CubeSats for education and research; and military/defense satellites.

Loading next visibility...
Identifier
63631, 2025-081B
Orbit
LEO
Country
Flag of USUS
Related business
Manufacturer
Blue Canyon
Mission
Operational Commercial Weather
Bus & Motor
CUBESAT 6U, Unknown motor
Mass
12 kg wet, 12 kg dry
Launch date (UTC)
Icon of a cake. It is the launch day of the satellite!2025-04-22 (1 year ago)
Launch vehicle
FALCON 9
Launch site
Air Force Eastern Test Range (AFETR)
Object type
Payload
Rocket body
Debris
Shape & HBR
Box + 2 Pan, 1.0 m
Radar Cross Section
0.138 m², Medium (>0.1 m² and < 1m²)

Expand to show TLE details & history
Last TLE update: 8 hours ago

TLE from 8 hours ago
0 TOMORROW-S7
1 63631U 25081B   26111.89161851  .00001025  00000-0  10083-3 0  9998
2 63631  45.3918 268.1124 0002327 301.9062  58.1589 14.99420001 54724
Epoch: 2026-04-21T21:23Z
TLE epoch observation values (Epoch: 2026-04-21T21:23:55.839Z)
Latitude
-0.00005°
Longitude
97.1688°
Altitude
567.877 km
Speed
7.579 km/s
True Right ascension
17h 52m 26s
True Declination
0° 00' 00"
Sunlit
Object was in full shadow at epoch
Visualization orbit readout
Latitude
Unknown
Longitude
Unknown
Altitude
Unknown
Speed
Unknown
Apparent Right ascension
Unknown
Apparent Declination
Unknown
Sunlit
N/A
Visualization observer readout
Local Sidereal Time
12:51:21
Azimuth
Unknown
Elevation
Unknown
Doppler factor
Unknown
Orbital elements
Apogee altitude
571.829 km
Perigee altitude
568.595 km
Semi-major axis
6,948.349 km
Eccentricity
0.00023
Inclination
45.3918°
RAAN
268.1124°
Arg. of periapsis
301.9062°
True anomaly
58.18156°
Mean anomaly
58.1589°
Eccentric anomaly
58.17023°
Mean motion
3.74732 °/min
Orbital period
96.07 mins
BSTAR
0.00010083
Loading maneuver chart data...
Computing Atmospheric mass density...
Loading historical data...
Loading historical data...
Loading historical data...
Loading historical data...
Loading historical data...
Loading historical data...
Loading historical data...
Other satellites on launch #81 in the year 2025 (2025-04-22 UTC)

Documentation

Showing up to 5 results
|